Regional Weather Roundup
Issued by NWS

Home | Current Version | Previous Version | Text Only | Print | Product List | Glossary On
Versions: 1 2 3 4 5 6 7 8 9 10 11 12 13 14 15 16 17 18 19 20 21 22 23 24 25 26 27 28 29 30 31 32 33 34 35 36 37 38 39 40 41 42 43 44 45 46 47 48 49 50
000
ASUS42 KTBW 280317
RWRFL
FLORIDA REGIONAL WEATHER ROUNDUP
NATIONAL WEATHER SERVICE TAMPA BAY RUSKIN FL
1100 PM EDT WED MAY 27 2015

NOTE: "FAIR" INDICATES FEW OR NO CLOUDS BELOW 12,000 FEET WITH NO
SIGNIFICANT WEATHER AND/OR OBSTRUCTIONS TO VISIBILITY.


FLZ001>010-012>015-112-114-115-280400-
PANHANDLE FLORIDA

CITY           SKY/WX    TMP DP  RH WIND       PRES   REMARKS
PENSACOLA      CLOUDY    76  73  91 NE3       30.13S
PENSACOLA NAS  CLOUDY    78  74  87 E5        30.12R
MILTON NAS     CLOUDY    72  70  93 CALM      30.15
CRESTVIEW      MOCLDY    71  70  96 CALM      30.17R
DUKE FIELD     MOCLDY    72  70  93 E2        30.14R
VALPARAISO     MOCLDY    76  71  84 E3        30.15R
MARY ESTHER    PTCLDY    78  69  72 E3        30.13R
TRI COUNTY     FAIR      71  70  96 CALM      30.18R
PANAMA CITY    FAIR      73  69  87 CALM      30.15R
TYNDALL AFB    MOCLDY    72  72 100 SE2       30.15R
APALACHICOLA   MOCLDY    77  72  84 NE6       30.15R

STATION/POSITION SKY/WX   TEMP    WIND        PRES    WAVE   SWELL
                          AIR SEA DIR/SP/G            HT/PER HT/PER
                          (F)     (DEG/KT/KT) (MB)    (FT/S) (FT/S)
30.1N   87.6W              79 80  160/  6/  6 1019.3R   3/ 7   2/ 7
29.2N   88.2W              77 80  110/  8/ 10 1018.5F   3/ 7   3/ 7
28.8N   86.0W              78 81   70/  8/ 10 1020.9R   3/ 5   3/ 5
PANAMA CITY BEAC           77 82   70/  3/  6 1020.6R
CAPE SAN BLAS    NOT AVBL
TOWER C                    78     310/  5/  6 1020.9R
28.5N   84.5W              80 81  350/  4/  4 1020.4R   2/ 6   2/ 6

$$
FLZ011-016>038-118-127-128-134-139-239-280400-
NORTH FLORIDA

CITY           SKY/WX    TMP DP  RH WIND       PRES   REMARKS
MARIANNA       PTCLDY    72  72 100 CALM      30.16R
TALLAHASSEE    MOCLDY    76  72  87 N5        30.16S
PERRY          PTCLDY    71  70  98 N3        30.17R
CROSS CITY       N/A     79  64  60 E7        30.15S
LAKE CITY      FAIR      72  64  78 E5        30.18S
GAINESVILLE    PTCLDY    70  64  81 E5        30.17S
MAYPORT NAS    MOCLDY    77  66  68 SE9       30.19S
JACKSONVILLE   MOCLDY    71  65  81 E5        30.19R
JAX NAS        MOCLDY    80  65  59 E8        30.19R
JAX CRAIG      MOCLDY    75  65  70 SE3       30.19S
JAX CECIL      MOCLDY    72  66  83 CALM      30.19S
FERNANDINA BEA FAIR      81  68  65 SE8       30.18S
ST AUGUSTINE   PTCLDY    77  67  71 E13       30.19S

STATION/POSITION SKY/WX   TEMP    WIND        PRES    WAVE   SWELL
                          AIR SEA DIR/SP/G            HT/PER HT/PER
                          (F)     (DEG/KT/KT) (MB)    (FT/S) (FT/S)
SHELL POINT                78     350/  5/  7   N/A
KEATON BEACH               75      40/  4/  6 1021.2R
CEDAR KEY                  80     100/ 15/ 18 1021.2R
FERNANDINA                 77 81  130/  3/  7 1021.6R
30.7N   81.3W                 80                N/A     3/ 7
MAYPORT                    78 80  120/  4/ 10 1022.4R
31.4N   80.9W              78 78  130/ 10/ 12 1023.0R   3/ 7   2/ 7
ST AUGUSTINE               77 80  120/ 11/ 12 1023.1R

$$
FLZ040-043>046-052-053-057-058-063-144-280400-
INTERIOR CENTRAL FLORIDA

CITY           SKY/WX    TMP DP  RH WIND       PRES   REMARKS
OCALA          CLEAR     75  63  64 E5        30.18R
THE VILLAGES     N/A     75  68  78 NE6       30.08R
LEESBURG       CLEAR     77  67  71 E6        30.18R
SANFORD        CLOUDY    75  69  81 E6        30.17R
ORLANDO EXEC   PTCLDY    76  68  76 E8        30.17R
ORLANDO INTL   PTCLDY    75  69  81 E6        30.17R
WINTER HAVEN   CLEAR     77  69  76 E12       30.17R
LAKELAND       CLEAR     77  66  69 E9        30.16R
BARTOW         FAIR      73  66  78 NE6       30.16S
OKEECHOBEE     CLEAR     72  66  83 E3        30.15R

$$
FLZ041-047-054-059-064-141-147-280400-
EAST CENTRAL FLORIDA

CITY           SKY/WX    TMP DP  RH WIND       PRES   REMARKS
DAYTONA BEACH  PTCLDY    77  67  71 E7        30.18R
DELAND           N/A     75  70  83 E5        30.19S
JFK SPACE CTR  PTCLDY    75  67  76 SE5       30.15S
CAPE CANAVERAL CLEAR     77  67  69 SE6       30.16R
PATRICK AFB    PTCLDY    79  67  66 SE16      30.15S
MELBOURNE      CLOUDY    78  66  66 E17       30.15S
VERO BEACH     PTCLDY    78  63  59 E10       30.15S
FT PIERCE      PTCLDY    77  65  66 E12       30.14S
STUART         PTCLDY    77  63  61 E12       30.15S

STATION/POSITION SKY/WX   TEMP    WIND        PRES    WAVE   SWELL
                          AIR SEA DIR/SP/G            HT/PER HT/PER
                          (F)     (DEG/KT/KT) (MB)    (FT/S) (FT/S)
28.5N   80.2W              79 81   90/ 16/ 19 1021.2R
28.9N   78.5W              77 80   80/ 12/ 16 1022.1R
TRIDENT PIER               78 83   80/ 10/ 13 1021.6F
28.4N   80.5W                 82                N/A     4/ 6
27.5N   80.2W                 81                N/A     5/ 6

$$
FLZ050-056-061-142-242-148-248-149-249-151-251-155-255-
160-260-280400-
WEST CENTRAL FLORIDA

CITY           SKY/WX    TMP DP  RH WIND       PRES   REMARKS
CRYSTAL RIVER  FAIR      77  64  65 E7        30.15S
INVERNESS      FAIR      75  68  78 E3        30.17R
BROOKSVILLE    CLEAR     76  66  71 E9        30.16R
CLEARWATER     CLEAR     80  66  62 E13       30.13R
TAMPA INTL     CLEAR     81  63  54 E7        30.14R
TAMPA EXEC     CLEAR     75  66  73 E5        30.15R
PLANT CITY     CLEAR     77  68  73 E5        30.17R
MACDILL AFB    CLEAR     79  68  67 E12       30.13R
PETER O KNIGHT CLEAR     81  66  61 E12       30.14R
ST PETERSBURG  CLEAR     81  68  64 E21       30.13R
SARASOTA       CLEAR     77  62  59 E8        30.11R
VENICE         FAIR      77  63  61 E10       30.13R

STATION/POSITION SKY/WX   TEMP    WIND        PRES    WAVE   SWELL
                          AIR SEA DIR/SP/G            HT/PER HT/PER
                          (F)     (DEG/KT/KT) (MB)    (FT/S) (FT/S)
CEDAR KEY                  80     100/ 15/ 18 1021.2R
28.5N   84.5W              80 81  350/  4/  4 1020.4R   2/ 6   2/ 6
27.3N   84.2W                 81                N/A     2/ 6
CLEARWATER BEACH           83 85   80/  6/ 12 1019.9R
MIDDLE TAMPA BAY           82     100/ 12/ 14 1019.8R
VENICE                     78 85   80/  7/ 10 1019.6R

$$
FLZ066-069-070-075>078-162-262-165-265-280400-
SOUTHWEST FLORIDA AND KEYS

CITY           SKY/WX    TMP DP  RH WIND       PRES   REMARKS
PUNTA GORDA    CLEAR     75  65  70 E10       30.13R
FT MYERS       CLEAR     78  66  66 E8        30.10R
SOUTHWEST INTL CLEAR     76  65  68 E10       30.11R
NAPLES         CLEAR     79  65  62 E15       30.09R
MARCO ISLAND     N/A     77  63  61 E8        30.09S
IMMOKALEE      CLEAR    N/A N/A N/A E9        30.12R
MARATHON       CLEAR     81  69  67 E13       30.07S
KEY WEST NAS   PTCLDY    80  68  66 E15       30.07S
KEY WEST INTL  PTCLDY    80  69  69 E10G20    30.07S

STATION/POSITION SKY/WX   TEMP    WIND        PRES    WAVE   SWELL
                          AIR SEA DIR/SP/G            HT/PER HT/PER
                          (F)     (DEG/KT/KT) (MB)    (FT/S) (FT/S)
VENICE                     78 85   80/  7/ 10 1019.6R
NAPLES                     81 84   70/  8/ 12 1018.7R
26.0N   85.6W              80 82   50/  8/ 10 1019.4R   3/ 6   3/ 6
DRY TORTUGAS               79      30/ 20/ 22 1017.8R
NW FL BAY                  81      70/ 13/ 15 1018.7
SAND KEY                   81      90/ 18/ 21 1018.0R
SOMBRERO KEY               80      80/ 20/ 22 1018.2F
LONG KEY                   80 83   90/ 16/ 19 1019.1S
MOLASSES REEF              80 82   80/ 16/ 17 1018.5R

$$
FLZ067-068-071>074-168-172>174-280400-
SOUTHEAST FLORIDA

CITY           SKY/WX    TMP DP  RH WIND       PRES   REMARKS
W PALM BEACH   PTCLDY    80  63  55 NE13      30.14R
FT LAUDER-EXEC MOCLDY    78  66  66 E17       30.11S
FT LAUDERDALE  MOCLDY    78  68  71 E16       30.11R
POMPANO BEACH  LGT RAIN  78  67  68 E12       30.11S
OPA LOCKA      PTCLDY    78  67  68 E15       30.11R
MIAMI          MOCLDY    79  67  66 NE14      30.11R
WEST KENDALL   CLOUDY    76  72  87 NE7       30.10S
HOMESTEAD      PTCLDY    80  67  65 E13       30.09S

STATION/POSITION SKY/WX   TEMP    WIND        PRES    WAVE   SWELL
                          AIR SEA DIR/SP/G            HT/PER HT/PER
                          (F)     (DEG/KT/KT) (MB)    (FT/S) (FT/S)
PORT EVERGLADES            78      50/  8/ 12 1019.4R
VIRGINIA KEY               80 84   80/ 16/ 20 1018.7R
LAKE WORTH                 79 83   60/ 17/ 20 1019.7R
SETTLEMENT POINT           78      80/ 17/ 19 1020.9R

$$



USA.gov is the U.S. government's official web portal to all federal, state and local government web resources and services.